Location: Capvern
(43.1036°N, 0.3160°E)
Time: 04:26:58
(UTC+00:00)

Cosmos 1455 Rocket - Pass Details

Date: 16 October 2021
Orbit: 604 x 630 km, 82.5° (Epoch: 02 December)

Event Time Altitude Azimuth Distance (km) Brightness Sun altitude
Rises 18:06:25 0° 165° (SSE) 2,874 6.4 -10.3°
Reaches altitude 10° 18:08:45 10° 157° (SSE) 1,978 5.4 -10.7°
Maximum altitude 18:12:45 35° 91° (E) 1,001 3.6 -11.4°
Drops below altitude 10° 18:16:48 10° 25° (NNE) 2,007 5.4 -12.2°
Sets 18:19:11 0° 17° (NNE) 2,923 6.3 -12.6°
